DW4542 Weather Reports


time (UTC)temp
F
wind
direction
speed
knots
gust
knots
rain 1hr
in
rain 24hr
in
rain mn
in
humidity
%
barometer
mb
20260504190652 80 61 0.0 2.6 0.00 0.00 0.00 32 1015.9
20260504185652 78 320 0.0 3.5 0.00 0.00 0.00 36 1016.1
20260504185153 78 306 0.0 3.5 0.00 0.00 0.00 36 1016.2
20260504184652 78 306 0.9 2.6 0.00 0.00 0.00 36 1016.3
20260504183652 77 133 0.0 3.5 0.00 0.00 0.00 35 1016.3
20260504183152 77 342 2.6 5.2 0.00 0.00 0.00 34 1016.4
20260504182652 76 329 1.7 6.1 0.00 0.00 0.00 35 1016.5
20260504182152 76 58 0.0 6.1 0.00 0.00 0.00 36 1016.5
20260504181652 77 312 2.6 4.3 0.00 0.00 0.00 36 1016.5
20260504181152 77 324 1.7 3.5 0.00 0.00 0.00 35 1016.7
20260504180652 77 329 2.6 3.5 0.00 0.00 0.00 34 1016.9
20260504180152 78 37 0.0 3.5 0.00 0.00 0.00 35 1017.0
20260504175652 77 324 1.7 3.5 0.00 0.00 0.00 37 1017.0
20260504175152 76 308 0.9 2.6 0.00 0.00 0.00 37 1017.0
20260504174152 76 11 0.9 3.5 0.00 0.00 0.00 37 1017.1
20260504173651 76 297 0.9 3.5 0.00 0.00 0.00 36 1017.1
20260504172651 77 290 0.9 1.7 0.00 0.00 0.00 37 1017.1
20260504172151 77 72 0.0 1.7 0.00 0.00 0.00 39 1017.2
20260504171651 77 95 0.0 1.7 0.00 0.00 0.00 37 1017.3
20260504171151 77 208 0.0 2.6 0.00 0.00 0.00 36 1017.4
20260504170651 76 63 1.7 2.6 0.00 0.00 0.00 36 1017.5
20260504170151 76 96 0.0 2.6 0.00 0.00 0.00 39 1017.5
20260504160151 71 301 0.0 2.6 0.00 0.00 0.00 43 1017.9
20260504151150 70 70 0.9 1.7 0.00 0.00 0.00 48 1018.5
20260504150150 70 86 0.0 0.9 0.00 0.00 0.00 46 1018.5
20260504141149 64 100 0.0 0.0 0.00 0.00 0.00 72 1018.7
20260504140649 64 101 0.0 0.0 0.00 0.00 0.00 70 1018.6
20260504140149 63 114 0.0 0.0 0.00 0.00 0.00 73 1018.5
20260504130648 55 8 0.0 0.0 0.00 0.00 0.00 92 1018.4
20260504130148 54 8 0.0 0.0 0.00 0.00 0.00 93 1018.4
20260504120148 47 8 0.0 0.0 0.00 0.00 0.00 93 1018.2
20260504110147 45 8 0.0 0.0 0.00 0.00 0.00 92 1018.0
20260504100147 45 8 0.0 0.0 0.00 0.00 0.00 92 1017.9
20260504081646 47 8 0.0 0.0 0.00 0.00 0.00 91 1018.0
20260504081146 47 9 0.0 0.0 0.00 0.00 0.00 91 1018.1
20260504080646 47 9 0.0 0.0 0.00 0.00 0.00 91 1018.1
20260504080145 47 8 0.0 0.0 0.00 0.00 0.00 91 1018.2
20260504070145 48 8 0.0 0.0 0.00 0.00 0.00 91 1018.3
20260504060145 49 343 0.0 0.0 0.00 0.00 0.00 90 1018.9
20260504050644 51 342 0.0 0.0 0.00 0.00 0.00 89 1019.0
20260504050214 51 342 0.0 0.0 0.00 0.00 0.00 89 1019.1
20260504045644 51 342 0.0 0.0 0.00 0.00 0.00 89 1019.0
20260504044644 51 342 0.0 0.0 0.00 0.00 0.00 88 1019.0
20260504044144 51 342 0.0 0.0 0.00 0.00 0.00 88 1019.0
20260504043144 51 342 0.0 0.0 0.00 0.00 0.00 87 1018.9
20260504042144 52 342 0.0 0.0 0.00 0.00 0.00 86 1019.0
20260504041643 52 342 0.0 0.0 0.00 0.00 0.00 86 1018.9
20260504041143 52 342 0.0 0.0 0.00 0.00 0.00 84 1019.0
20260504040143 52 342 0.0 0.0 0.00 0.00 0.00 83 1018.9
20260504035643 52 342 0.0 0.0 0.00 0.00 0.00 82 1018.8
20260504035143 52 342 0.0 0.0 0.00 0.00 0.00 82 1018.7
20260504034643 52 342 0.0 0.0 0.00 0.00 0.00 80 1018.6
20260504034143 52 342 0.0 0.0 0.00 0.00 0.00 80 1018.6
20260504033643 52 342 0.0 0.0 0.00 0.00 0.00 81 1018.6
20260504033143 53 342 0.0 0.0 0.00 0.00 0.00 81 1018.8
20260504032643 53 342 0.0 0.0 0.00 0.00 0.00 81 1018.9
20260504032143 53 342 0.0 0.0 0.00 0.00 0.00 80 1018.9
20260504031643 53 342 0.0 0.0 0.00 0.00 0.00 80 1018.8
20260504031143 53 342 0.0 0.0 0.00 0.00 0.00 80 1018.9
20260504030643 54 342 0.0 0.0 0.00 0.00 0.00 80 1018.8
20260504030142 54 342 0.0 0.0 0.00 0.00 0.00 79 1018.8
20260504025643 54 342 0.0 0.0 0.00 0.00 0.00 80 1018.7
20260504025143 55 342 0.0 0.0 0.00 0.00 0.00 80 1018.8
20260504024643 55 342 0.0 0.0 0.00 0.00 0.00 79 1018.7
20260504024143 55 342 0.0 0.0 0.00 0.00 0.00 78 1018.7
20260504023643 55 342 0.0 0.0 0.00 0.00 0.00 76 1018.7
20260504023143 56 342 0.0 0.0 0.00 0.00 0.00 75 1018.8
20260504022642 56 342 0.0 0.0 0.00 0.00 0.00 74 1018.7
20260504022142 56 342 0.0 0.0 0.00 0.00 0.00 74 1018.7
20260504021642 57 342 0.0 0.0 0.00 0.00 0.00 72 1018.7
20260504021142 57 342 0.0 0.0 0.00 0.00 0.00 71 1018.6
20260504020642 57 342 0.0 0.0 0.00 0.00 0.00 73 1018.5
20260504020142 58 342 0.0 0.0 0.00 0.00 0.00 70 1018.3
20260504015642 58 342 0.0 0.0 0.00 0.00 0.00 71 1018.3
20260504015142 58 342 0.0 0.0 0.00 0.00 0.00 71 1018.2
20260504014642 58 342 0.0 0.0 0.00 0.00 0.00 72 1018.1
20260504013642 59 342 0.0 0.0 0.00 0.00 0.00 71 1018.1
20260504013142 59 342 0.0 0.0 0.00 0.00 0.00 71 1018.0
20260504012642 59 344 0.0 0.0 0.00 0.00 0.00 69 1017.9
20260504011641 60 345 0.0 0.0 0.00 0.00 0.00 67 1017.6
20260504011141 60 345 0.0 0.0 0.00 0.00 0.00 68 1017.6
20260504010711 60 345 0.0 0.0 0.00 0.00 0.00 67 1017.5
20260504005641 61 345 0.0 0.0 0.00 0.00 0.00 64 1017.3
20260504005141 61 345 0.0 0.0 0.00 0.00 0.00 60 1017.3
20260504004711 62 345 0.0 0.0 0.00 0.00 0.00 59 1017.1
20260504004211 62 345 0.0 0.0 0.00 0.00 0.00 58 1017.1
20260504003711 63 345 0.0 0.0 0.00 0.00 0.00 56 1017.1
20260504003141 63 345 0.0 0.0 0.00 0.00 0.00 56 1017.1
20260504002641 64 345 0.0 0.0 0.00 0.00 0.00 54 1017.0
20260504002141 65 345 0.0 0.0 0.00 0.00 0.00 54 1017.1
20260504001710 65 344 0.0 0.0 0.00 0.00 0.00 54 1017.0
20260504001210 66 345 0.0 0.0 0.00 0.00 0.00 52 1017.1
20260504000641 67 345 0.0 0.0 0.00 0.00 0.00 51 1017.1
20260504000141 67 345 0.0 0.0 0.00 0.00 0.00 50 1017.1
20260503235640 68 345 0.0 0.0 0.00 0.00 0.00 50 1017.0
20260503234640 69 345 0.0 0.9 0.00 0.00 0.00 46 1017.0
20260503234140 69 345 0.0 0.0 0.00 0.00 0.00 44 1016.9
20260503233710 70 345 0.0 0.0 0.00 0.00 0.00 43 1016.9
20260503233210 70 345 0.0 1.7 0.00 0.00 0.00 41 1017.0
20260503232640 71 345 0.0 2.6 0.00 0.00 0.00 41 1016.9
20260503232210 71 301 0.0 2.6 0.00 0.00 0.00 35 1017.1
20260503231139 72 319 0.0 2.6 0.00 0.00 0.00 34 1017.2
20260503230639 72 321 0.9 2.6 0.00 0.00 0.00 34 1017.2
20260503230210 72 302 0.9 3.5 0.00 0.00 0.00 35 1017.2
20260503225639 72 331 0.9 3.5 0.00 0.00 0.00 34 1017.2
20260503224139 72 304 0.0 3.5 0.00 0.00 0.00 33 1017.1
20260503223709 72 333 1.7 4.3 0.00 0.00 0.00 36 1017.1
20260503223209 72 317 1.7 4.3 0.00 0.00 0.00 31 1017.0
20260503222639 72 316 0.9 4.3 0.00 0.00 0.00 34 1017.0
20260503221709 72 339 0.9 2.6 0.00 0.00 0.00 35 1016.9
20260503221209 73 306 1.7 3.5 0.00 0.00 0.00 36 1016.9
20260503220709 73 28 0.0 3.5 0.00 0.00 0.00 34 1017.0
20260503220209 73 314 2.6 3.5 0.00 0.00 0.00 33 1016.9
20260503215639 73 315 0.9 3.5 0.00 0.00 0.00 33 1016.9
20260503215209 72 321 0.9 3.5 0.00 0.00 0.00 34 1016.9
20260503214709 72 354 0.0 3.5 0.00 0.00 0.00 34 1017.0
20260503213208 72 303 2.6 4.3 0.00 0.00 0.00 33 1017.3
20260503212708 72 353 0.9 5.2 0.00 0.00 0.00 33 1017.2
20260503212208 73 316 4.3 5.2 0.00 0.00 0.00 34 1017.2
20260503211208 73 329 2.6 3.5 0.00 0.00 0.00 32 1017.4
20260503210708 73 260 0.0 4.3 0.00 0.00 0.00 34 1017.4
20260503210208 73 310 1.7 4.3 0.00 0.00 0.00 33 1017.4
20260503205708 74 29 0.9 6.1 0.00 0.00 0.00 33 1017.5
20260503205208 73 329 0.9 6.1 0.00 0.00 0.00 33 1017.6
20260503203708 73 314 1.7 4.3 0.00 0.00 0.00 33 1017.9
20260503203207 73 318 2.6 5.2 0.00 0.00 0.00 31 1018.0
20260503202707 73 295 1.7 5.2 0.00 0.00 0.00 33 1018.2
20260503202207 73 304 2.6 3.5 0.00 0.00 0.00 37 1018.1
20260503201707 72 323 0.9 3.5 0.00 0.00 0.00 31 1018.3
20260503201207 72 328 1.7 4.3 0.00 0.00 0.00 33 1018.4
20260503200707 72 310 1.7 4.3 0.00 0.00 0.00 35 1018.5
20260503200207 72 338 1.7 5.2 0.00 0.00 0.00 33 1018.5
20260503195707 72 313 3.5 6.1 0.00 0.00 0.00 31 1018.5
20260503195207 73 313 3.5 6.1 0.00 0.00 0.00 35 1018.7
20260503194707 72 332 2.6 6.1 0.00 0.00 0.00 35 1018.6
20260503193707 73 315 2.6 9.6 0.00 0.00 0.00 33 1018.8
20260503193207 73 319 3.5 9.6 0.00 0.00 0.00 35 1018.8
20260503192707 73 290 2.6 6.1 0.00 0.00 0.00 34 1018.8
20260503192207 73 306 1.7 4.3 0.00 0.00 0.00 36 1018.9
20260503191207 73 272 0.0 3.5 0.00 0.00 0.00 34 1019.0